Location: Castelbiague
(43.0361°N, 0.9246°E)
Time: 13:21:12
(UTC+00:00)

Cosmos 1606 Rocket - Pass Details

Date: 17 June 2021
Orbit: 602 x 633 km, 82.5° (Epoch: 05 August)

Event Time Altitude Azimuth Distance (km) Brightness Sun altitude
Rises 22:21:45 0° 356° (N) 2,937 8.3 -20.0°
Reaches altitude 10° 22:24:04 10° 2° (N) 2,022 7.1 -20.2°
Maximum altitude 22:28:27 52° 79° (ENE) 789 3.9 -20.5°
Enters shadow 22:29:17 45° 116° (ESE) 864 3.9 -20.5°
